Home   Weather   Butte   Past weeks

Flag for USA Past Weather in Butte, Montana, USA — Yesterday and Last 2 Weeks

Now
16 °F

Overcast.


Feels Like: 16 °F
Forecast: 0 / 28 °F
Wind: No wind

Location: Mooney Airport

Current Time: Dec 9, 2016 at 2:23:54 pm

Latest Report: Dec 9, 2016 at 1:53 pm


Visibility: 10 mi

Pressure: 30.21 "Hg (24.29 "Hg at 1685m altitude)

Humidity: 67%

Dew Point: 7 °F

Location of ButteLocation

Past Weather in Butte — Graph

°F

Butte Temperature Yesterday

Maximum temperature yesterday: 12 °F (at 2:53 pm)
Minimum temperature yesterday: -9 °F (at 7:53 am)
Average temperature yesterday: 3 °F

High & Low Weather Summary for the Past Weeks

 TemperatureHumidityPressure
High47 °F (Nov 26, 2:53 pm)92% (Nov 28, 4:53 am)30.60 "Hg (Nov 28, 4:53 am)
Low-9 °F (Dec 8, 7:53 am)25% (Nov 26, 1:53 pm)29.42 "Hg (Nov 28, 4:04 am)
Average21 °F69%30.07 "Hg
* Reported Nov 24 12:53 pm — Dec 9 12:53 pm, Butte, Weather by CustomWeather, © 2016

Note: Actual official high and low records may vary slightly from our data, if they occured in-between our weather recording intervals... More about our weather records

Advertising

Butte Weather History for the Previous 24 Hours

Scroll right to see more
 ConditionsComfort  
Time TempWeatherWind HumidityBarometerVisibility
12:53 pm
Fri, Dec 9
13 °FPassing clouds.3 mph70%30.23 "Hg10 mi
11:53 am10 °FSunny.No wind76%30.29 "Hg10 mi
10:53 am6 °FSunny.No wind76%30.32 "Hg10 mi
9:53 am3 °FPassing clouds.No wind79%30.34 "Hg10 mi
8:53 am1 °FPassing clouds.No wind79%30.32 "Hg10 mi
7:53 am2 °FClear.No wind80%30.32 "Hg10 mi
6:53 am6 °FMostly cloudy.5 mph73%30.29 "Hg10 mi
5:53 am2 °FPassing clouds.8 mph80%30.31 "Hg10 mi
4:53 am6 °FLight snow. Overcast.7 mph79%30.29 "Hg4 mi
3:53 am7 °FLight snow. Overcast.5 mph76%30.29 "Hg4 mi
2:53 am7 °FLight snow. Overcast.3 mph73%30.26 "Hg6 mi
1:53 am6 °FLight snow. Overcast.10 mph76%30.28 "Hg6 mi
12:53 am6 °FLight snow. Overcast.8 mph79%30.28 "Hg2 mi
11:53 pm
Thu, Dec 8
6 °FLight snow. Overcast.9 mph76%30.28 "Hg5 mi
10:53 pm7 °FLight snow. Overcast.3 mph79%30.28 "Hg6 mi
9:53 pm7 °FLight snow. Overcast.8 mph76%30.29 "Hg1 mi
8:58 pm8 °FLight snow. Overcast.No wind72%30.01 "Hg2 mi
7:53 pm8 °FMostly cloudy.6 mph66%30.33 "Hg10 mi
6:53 pm7 °FOvercast.10 mph70%30.36 "Hg10 mi
5:53 pm6 °FOvercast.15 mph73%30.37 "Hg10 mi
4:53 pm5 °FPassing clouds.15 mph72%30.37 "Hg10 mi
3:53 pm6 °FSunny.16 mph69%30.38 "Hg10 mi
2:53 pm12 °FSunny.No wind56%30.36 "Hg10 mi
Weather by CustomWeather, © 2016

See weather overviewHow to use our weather pages